Location: STAR School
(35.3054°N, 111.2976°W)
Time: 05:27:24
(UTC-07:00)

Tiros 1 despin weight - Visible Passes

Search period start: 23 October 2019 00:00
Search period end: 02 November 2019 00:00
Orbit: 593 x 643 km, 48.2° (Epoch: 22 October)

Date Brightness Start Highest point End Pass type
(mag) Time Alt. Az. Time Alt. Az. Time Alt. Az.
23 Oct ? 04:03:00 19° NNE 04:03:00 19° NNE 04:05:36 10° ENE visible
23 Oct ? 05:40:05 11° NW 05:44:28 56° NNE 05:49:03 10° ESE visible
24 Oct ? 04:19:10 27° NNE 04:19:10 27° NNE 04:23:06 10° E visible
24 Oct ? 05:56:24 10° NW 06:01:06 78° SW 06:05:44 10° SE visible
25 Oct ? 04:35:25 39° N 04:36:00 41° NNE 04:40:25 10° E visible
26 Oct ? 04:51:46 54° NNW 04:52:42 73° NE 04:57:22 10° ESE visible
27 Oct ? 03:31:06 13° E 03:31:06 13° E 03:31:39 10° E visible
27 Oct ? 05:08:12 46° W 05:09:15 58° SW 05:13:49 10° SE visible
28 Oct ? 03:47:38 17° ESE 03:47:38 17° ESE 03:48:49 10° ESE visible
28 Oct ? 05:24:44 26° WSW 05:25:39 28° SW 05:29:37 10° SSE visible
29 Oct ? 04:04:14 19° SE 04:04:14 19° SE 04:05:34 10° SE visible
29 Oct ? 05:41:21 13° WSW 05:41:55 13° SW 05:44:08 10° SSW visible
29 Oct ? 19:42:48 10° S 19:42:55 11° S 19:42:55 11° S visible
30 Oct ? 04:20:55 15° SSE 04:20:55 15° SSE 04:21:47 10° SSE visible
30 Oct ? 19:58:31 10° SW 19:59:32 16° SSW 19:59:32 16° SSW visible
31 Oct ? 18:35:29 10° S 18:38:20 17° SE 18:38:58 16° ESE visible
31 Oct ? 20:14:57 10° WSW 20:16:04 18° WSW 20:16:04 18° WSW visible
01 Nov ? 18:50:34 10° SSW 18:54:38 35° SE 18:55:26 32° ESE visible
01 Nov ? 20:31:51 10° W 20:32:31 14° W 20:32:31 14° W visible
